GW3780 Weather Reports


Display with metric or nautical units.
time (UTC)temp
F
wind
direction
speed
MPH
gust
MPH
rain 1hr
in
rain 24hr
in
rain mn
in
humidity
%
barometer
mb
20260509074711 55 23 0.0 2.0 0.00 0.00 0.00 75 1014.0
20260509074209 55 199 0.0 2.0 0.00 0.00 0.00 76 1014.1
20260509073705 55 356 0.0 1.0 0.00 0.00 0.00 76 1014.0
20260509073201 55 50 0.0 1.0 0.00 0.00 0.00 76 1014.0
20260509072658 55 50 0.0 1.0 0.00 0.00 0.00 76 1014.2
20260509072155 55 339 1.0 1.0 0.00 0.00 0.00 75 1014.2
20260509071652 55 224 2.0 2.0 0.00 0.00 0.00 74 1014.4
20260509071149 55 211 0.0 1.0 0.00 0.00 0.00 73 1014.3
20260509070646 56 203 0.0 2.0 0.00 0.00 0.00 73 1014.5
20260509070142 56 195 1.0 2.0 0.00 0.00 0.00 73 1014.3
20260509065638 56 135 0.0 2.0 0.00 0.00 0.00 72 1014.7
20260509065134 56 230 2.0 2.0 0.00 0.00 0.00 72 1014.6
20260509064631 56 72 0.0 2.0 0.00 0.00 0.00 71 1014.6
20260509064129 56 224 2.0 3.0 0.00 0.00 0.00 71 1014.8
20260509063625 56 217 0.0 3.0 0.00 0.00 0.00 70 1015.0
20260509063117 56 216 0.0 2.0 0.00 0.00 0.00 69 1014.9
20260509062614 56 269 0.0 3.0 0.00 0.00 0.00 68 1015.1
20260509062111 56 248 0.0 2.0 0.00 0.00 0.00 68 1014.9
20260509061608 56 276 1.0 2.0 0.00 0.00 0.00 68 1015.0
20260509061105 56 326 0.0 2.0 0.00 0.00 0.00 67 1015.2
20260509060603 57 190 2.0 3.0 0.00 0.00 0.00 66 1015.5
20260509060058 57 99 0.0 2.0 0.00 0.00 0.00 66 1015.3
20260509055554 57 261 2.0 3.0 0.00 0.00 0.00 65 1015.3
20260509055050 57 198 0.0 2.0 0.00 0.00 0.00 65 1015.2
20260509054547 57 221 2.0 2.0 0.00 0.00 0.00 64 1015.2
20260509054045 57 286 0.0 2.0 0.00 0.00 0.00 64 1015.5
20260509053543 57 305 0.0 2.0 0.00 0.00 0.00 64 1015.2
20260509053040 57 237 0.0 2.0 0.00 0.00 0.00 63 1015.2
20260509052538 58 293 0.0 3.0 0.00 0.00 0.00 63 1015.1
20260509052035 58 230 0.0 2.0 0.00 0.00 0.00 63 1015.2
20260509051533 58 186 0.0 2.0 0.00 0.00 0.00 62 1015.0
20260509051030 58 231 1.0 3.0 0.00 0.00 0.00 61 1015.0
20260509050527 58 213 0.0 2.0 0.00 0.00 0.00 62 1015.0
20260509050023 58 315 0.0 2.0 0.00 0.00 0.00 61 1014.9
20260509045520 58 244 0.0 2.0 0.00 0.00 0.00 61 1014.9
20260509045017 58 180 1.0 2.0 0.00 0.00 0.00 62 1014.7
20260509044515 58 283 0.0 1.0 0.00 0.00 0.00 61 1014.7
20260509044013 58 174 0.0 1.0 0.00 0.00 0.00 60 1014.7
20260509043508 58 230 0.0 2.0 0.00 0.00 0.00 60 1014.5
20260509043004 58 49 0.0 0.0 0.00 0.00 0.00 60 1014.8
20260509042501 58 213 0.0 3.0 0.00 0.00 0.00 60 1014.9
20260509041956 58 228 0.0 2.0 0.00 0.00 0.00 60 1014.9
20260509041454 58 82 0.0 1.0 0.00 0.00 0.00 60 1015.0
20260509040952 58 66 0.0 0.0 0.00 0.00 0.00 59 1014.9
20260509040449 59 158 0.0 2.0 0.00 0.00 0.00 58 1015.1
20260509035946 59 127 0.0 1.0 0.00 0.00 0.00 58 1014.9
20260509035443 59 89 0.0 1.0 0.00 0.00 0.00 57 1014.9
20260509034939 59 49 0.0 2.0 0.00 0.00 0.00 56 1015.0
20260509034437 60 323 0.0 2.0 0.00 0.00 0.00 55 1015.2
20260509033934 60 149 2.0 2.0 0.00 0.00 0.00 55 1015.2
20260509033431 60 240 1.0 2.0 0.00 0.00 0.00 54 1014.8
20260509032928 60 301 1.0 3.0 0.00 0.00 0.00 54 1015.0
20260509032425 60 212 0.0 2.0 0.00 0.00 0.00 53 1015.4
20260509031923 60 240 2.0 2.0 0.00 0.00 0.00 53 1015.3
20260509031420 61 330 0.0 3.0 0.00 0.00 0.00 52 1015.3
20260509030917 61 238 2.0 3.0 0.00 0.00 0.00 52 1015.1
20260509030415 61 264 2.0 4.0 0.00 0.00 0.00 51 1015.3
20260509025912 61 257 0.0 3.0 0.00 0.00 0.00 51 1015.3
20260509025408 61 184 2.0 3.0 0.00 0.00 0.00 50 1015.2
20260509024903 61 214 1.0 4.0 0.00 0.00 0.00 50 1015.4
20260509024359 61 222 1.0 2.0 0.00 0.00 0.00 49 1015.3
20260509023856 61 206 3.0 3.0 0.00 0.00 0.00 49 1015.3
20260509023354 61 194 2.0 2.0 0.00 0.00 0.00 48 1015.1
20260509022850 62 199 0.0 4.0 0.00 0.00 0.00 48 1015.2
20260509022347 62 250 2.0 4.0 0.00 0.00 0.00 47 1015.3
20260509021844 62 222 1.0 4.0 0.00 0.00 0.00 47 1015.1
20260509021341 62 233 1.0 3.0 0.00 0.00 0.00 47 1015.4
20260509020839 62 267 0.0 5.0 0.00 0.00 0.00 46 1015.2
20260509020337 62 220 2.0 2.0 0.00 0.00 0.00 47 1015.2
20260509015834 62 268 1.0 2.0 0.00 0.00 0.00 46 1014.9
20260509015332 62 273 0.0 4.0 0.00 0.00 0.00 46 1014.9
20260509014829 62 186 0.0 2.0 0.00 0.00 0.00 46 1015.0
20260509014326 62 127 1.0 2.0 0.00 0.00 0.00 46 1015.0
20260509013822 62 40 0.0 2.0 0.00 0.00 0.00 46 1015.1
20260509013319 62 304 1.0 2.0 0.00 0.00 0.00 45 1014.9
20260509012815 62 315 0.0 2.0 0.00 0.00 0.00 45 1015.0
20260509012312 63 323 1.0 2.0 0.00 0.00 0.00 45 1014.9
20260509011809 63 242 2.0 2.0 0.00 0.00 0.00 44 1014.7
20260509011306 63 248 1.0 2.0 0.00 0.00 0.00 44 1014.6
20260509010804 63 314 0.0 2.0 0.00 0.00 0.00 44 1014.6
20260509010301 64 150 0.0 2.0 0.00 0.00 0.00 43 1014.7
20260509005758 64 274 1.0 2.0 0.00 0.00 0.00 43 1014.8
20260509005256 64 293 0.0 3.0 0.00 0.00 0.00 42 1015.0
20260509004755 64 205 2.0 6.0 0.00 0.00 0.00 42 1014.7
20260509004253 64 341 0.0 3.0 0.00 0.00 0.00 42 1014.7
20260509003751 65 205 0.0 2.0 0.00 0.00 0.00 42 1014.8
20260509003248 65 220 0.0 2.0 0.00 0.00 0.00 42 1014.7
20260509002745 65 237 2.0 2.0 0.00 0.00 0.00 41 1014.6
20260509002243 65 192 2.0 2.0 0.00 0.00 0.00 41 1014.8
20260509001740 66 256 2.0 3.0 0.00 0.00 0.00 41 1014.5
20260509001236 66 197 2.0 3.0 0.00 0.00 0.00 41 1014.8
20260509000734 66 208 3.0 3.0 0.00 0.00 0.00 41 1014.7
20260509000233 66 330 1.0 2.0 0.00 0.00 0.00 40 1014.5
20260508235728 67 279 0.0 3.0 0.00 0.00 0.00 40 1014.5
20260508235224 67 147 0.0 2.0 0.00 0.00 0.00 40 1014.3
20260508234721 67 293 0.0 1.0 0.00 0.00 0.00 40 1014.3
20260508234217 68 209 2.0 2.0 0.00 0.00 0.00 39 1014.1
20260508233712 68 171 0.0 5.0 0.00 0.00 0.00 38 1014.0
20260508233209 68 293 0.0 2.0 0.00 0.00 0.00 40 1014.1
20260508232706 68 110 0.0 2.0 0.00 0.00 0.00 38 1014.1
20260508232202 68 281 2.0 4.0 0.00 0.00 0.00 37 1014.1
20260508231701 68 193 2.0 2.0 0.00 0.00 0.00 37 1014.0
20260508231157 69 89 0.0 4.0 0.00 0.00 0.00 36 1014.1
20260508230654 69 211 0.0 3.0 0.00 0.00 0.00 36 1013.8
20260508230150 69 175 0.0 4.0 0.00 0.00 0.00 35 1014.0
20260508225649 69 272 1.0 2.0 0.00 0.00 0.00 35 1014.1
20260508225144 69 224 0.0 2.0 0.00 0.00 0.00 35 1014.0
20260508224642 69 257 0.0 3.0 0.00 0.00 0.00 35 1014.0
20260508224140 69 338 1.0 2.0 0.00 0.00 0.00 34 1014.1
20260508223637 69 247 2.0 3.0 0.00 0.00 0.00 34 1014.0
20260508223134 69 219 0.0 2.0 0.00 0.00 0.00 35 1014.3
20260508222632 69 243 0.0 5.0 0.00 0.00 0.00 34 1014.2
20260508222129 69 251 0.0 3.0 0.00 0.00 0.00 34 1014.0
20260508221625 69 184 3.0 6.0 0.00 0.00 0.00 33 1014.4
20260508221120 70 222 3.0 4.0 0.00 0.00 0.00 33 1014.4
20260508220617 70 258 1.0 3.0 0.00 0.00 0.00 35 1014.3
20260508220114 70 267 1.0 5.0 0.00 0.00 0.00 34 1014.1
20260508215611 70 286 1.0 3.0 0.00 0.00 0.00 34 1014.3
20260508215107 70 236 3.0 4.0 0.00 0.00 0.00 34 1014.5
20260508214605 70 256 0.0 5.0 0.00 0.00 0.00 34 1014.4
20260508214101 70 223 0.0 3.0 0.00 0.00 0.00 34 1014.2
20260508213558 70 208 3.0 3.0 0.00 0.00 0.00 35 1014.4
20260508213054 70 208 2.0 3.0 0.00 0.00 0.00 34 1014.4
20260508212551 69 252 1.0 4.0 0.00 0.00 0.00 33 1014.4
20260508212047 69 203 2.0 4.0 0.00 0.00 0.00 34 1014.4
20260508211543 70 214 5.0 5.0 0.00 0.00 0.00 33 1014.4
20260508211039 69 249 1.0 4.0 0.00 0.00 0.00 32 1014.4
20260508210536 69 189 0.0 4.0 0.00 0.00 0.00 33 1014.3
20260508210034 70 46 0.0 4.0 0.00 0.00 0.00 33 1014.6
20260508205531 70 193 0.0 2.0 0.00 0.00 0.00 34 1014.4
20260508205027 69 208 0.0 5.0 0.00 0.00 0.00 34 1014.5
20260508204524 70 275 2.0 5.0 0.00 0.00 0.00 34 1014.5
20260508204019 70 192 3.0 3.0 0.00 0.00 0.00 34 1014.5
20260508203515 70 191 1.0 4.0 0.00 0.00 0.00 34 1014.7
20260508203012 70 159 2.0 5.0 0.00 0.00 0.00 33 1014.5
20260508202509 70 202 2.0 2.0 0.00 0.00 0.00 35 1014.6
20260508202006 70 209 1.0 3.0 0.00 0.00 0.00 35 1014.4
20260508201502 70 175 0.0 2.0 0.00 0.00 0.00 35 1014.8
20260508200959 69 190 1.0 4.0 0.00 0.00 0.00 34 1014.7
20260508200456 70 201 2.0 3.0 0.00 0.00 0.00 34 1014.9
20260508195950 69 261 1.0 3.0 0.00 0.00 0.00 35 1014.8
20260508195448 70 234 1.0 5.0 0.00 0.00 0.00 35 1015.1
20260508194944 70 185 2.0 4.0 0.00 0.00 0.00 35 1014.9
20260508194442 69 288 1.0 3.0 0.00 0.00 0.00 35 1015.3
20260508193938 70 250 4.0 4.0 0.00 0.00 0.00 35 1015.0
20260508193435 69 216 0.0 3.0 0.00 0.00 0.00 35 1015.0
20260508192932 70 248 2.0 4.0 0.00 0.00 0.00 34 1015.3
20260508192429 70 311 0.0 3.0 0.00 0.00 0.00 36 1015.3
20260508191926 70 279 1.0 2.0 0.00 0.00 0.00 35 1015.3
20260508191423 70 12 1.0 3.0 0.00 0.00 0.00 37 1015.7
20260508190920 69 286 4.0 4.0 0.00 0.00 0.00 36 1015.6
20260508190417 69 276 2.0 2.0 0.00 0.00 0.00 35 1015.8
20260508185913 69 182 2.0 5.0 0.00 0.00 0.00 36 1015.7
20260508185411 69 266 0.0 3.0 0.00 0.00 0.00 35 1015.8
20260508184908 69 189 2.0 6.0 0.00 0.00 0.00 35 1016.1
20260508184405 69 268 2.0 3.0 0.00 0.00 0.00 36 1016.1
20260508183901 69 296 0.0 5.0 0.00 0.00 0.00 35 1016.1
20260508183358 69 205 2.0 5.0 0.00 0.00 0.00 36 1016.2
20260508182854 68 278 0.0 4.0 0.00 0.00 0.00 35 1016.4
20260508182351 68 300 1.0 2.0 0.00 0.00 0.00 36 1016.3
20260508181846 69 286 3.0 4.0 0.00 0.00 0.00 37 1016.5
20260508181343 70 179 1.0 3.0 0.00 0.00 0.00 36 1016.5
20260508180840 69 184 2.0 4.0 0.00 0.00 0.00 38 1016.6
20260508180337 68 226 2.0 6.0 0.00 0.00 0.00 37 1016.6
20260508175833 68 151 3.0 3.0 0.00 0.00 0.00 39 1016.7
20260508175330 68 174 0.0 3.0 0.00 0.00 0.00 36 1016.7
20260508174828 67 174 2.0 5.0 0.00 0.00 0.00 36 1016.8
20260508174325 68 235 3.0 4.0 0.00 0.00 0.00 36 1016.7
20260508173821 68 200 0.0 2.0 0.00 0.00 0.00 37 1016.9
20260508173319 67 217 0.0 4.0 0.00 0.00 0.00 37 1016.7
20260508172814 67 57 2.0 5.0 0.00 0.00 0.00 37 1016.9
20260508172312 66 105 1.0 3.0 0.00 0.00 0.00 38 1016.8
20260508171808 66 137 1.0 3.0 0.00 0.00 0.00 39 1017.0
20260508171304 66 196 3.0 4.0 0.00 0.00 0.00 38 1017.2
20260508170801 66 190 2.0 2.0 0.00 0.00 0.00 40 1017.4
20260508170259 65 215 4.0 6.0 0.00 0.00 0.00 40 1017.3
20260508165755 66 246 2.0 3.0 0.00 0.00 0.00 41 1017.5
20260508165253 64 142 2.0 4.0 0.00 0.00 0.00 41 1017.5
20260508164749 66 199 3.0 3.0 0.00 0.00 0.00 42 1017.6
20260508164246 65 251 1.0 3.0 0.00 0.00 0.00 44 1017.5
20260508163744 66 284 2.0 3.0 0.00 0.00 0.00 41 1017.7
20260508163241 65 195 2.0 2.0 0.00 0.00 0.00 43 1017.8
20260508162731 66 184 3.0 3.0 0.00 0.00 0.00 43 1018.0
20260508162228 65 348 3.0 4.0 0.00 0.00 0.00 40 1017.9
20260508161725 65 256 4.0 5.0 0.00 0.00 0.00 40 1018.2
20260508161223 64 214 0.0 4.0 0.00 0.00 0.00 41 1018.1
20260508160720 64 194 0.0 4.0 0.00 0.00 0.00 43 1017.9
20260508160219 64 246 2.0 3.0 0.00 0.00 0.00 40 1018.0
20260508155715 64 230 0.0 3.0 0.00 0.00 0.00 41 1018.3
20260508155212 63 318 1.0 3.0 0.00 0.00 0.00 41 1018.3
20260508154709 63 164 0.0 3.0 0.00 0.00 0.00 42 1018.4
20260508154206 62 189 1.0 4.0 0.00 0.00 0.00 40 1018.5
20260508153702 63 191 0.0 2.0 0.00 0.00 0.00 40 1018.5
20260508153159 62 186 0.0 2.0 0.00 0.00 0.00 41 1018.7
20260508152656 63 194 3.0 3.0 0.00 0.00 0.00 39 1018.8
20260508152152 64 89 0.0 2.0 0.00 0.00 0.00 39 1018.5
20260508151648 63 328 2.0 2.0 0.00 0.00 0.00 42 1018.7
20260508151145 63 294 1.0 2.0 0.00 0.00 0.00 41 1018.8
20260508150642 62 92 2.0 3.0 0.00 0.00 0.00 43 1018.6
20260508150139 61 6 2.0 3.0 0.00 0.00 0.00 38 1018.7
20260508145634 61 89 0.0 4.0 0.00 0.00 0.00 39 1018.8
20260508145131 61 88 0.0 3.0 0.00 0.00 0.00 41 1018.8
20260508144629 62 342 2.0 4.0 0.00 0.00 0.00 42 1018.7
20260508144126 61 11 1.0 3.0 0.00 0.00 0.00 43 1018.5
20260508143624 61 20 2.0 2.0 0.00 0.00 0.00 44 1018.7
20260508143120 61 298 0.0 3.0 0.00 0.00 0.00 45 1018.6
20260508142617 61 209 1.0 3.0 0.00 0.00 0.00 45 1018.6
20260508142114 61 317 2.0 3.0 0.00 0.00 0.00 44 1018.7
20260508141610 61 109 0.0 2.0 0.00 0.00 0.00 47 1018.7
20260508141108 60 319 1.0 2.0 0.00 0.00 0.00 50 1018.7
20260508140605 60 118 0.0 2.0 0.00 0.00 0.00 49 1018.8
20260508135557 60 5 0.0 0.0 0.00 0.00 0.00 45 1018.6
20260508135053 60 171 1.0 6.0 0.00 0.00 0.00 46 1018.9
20260508134550 60 299 0.0 5.0 0.00 0.00 0.00 42 1019.0
20260508134047 62 352 2.0 3.0 0.00 0.00 0.00 43 1018.8
20260508133544 63 312 1.0 2.0 0.00 0.00 0.00 48 1018.9
20260508133041 62 13 0.0 2.0 0.00 0.00 0.00 54 1018.8
20260508132539 60 324 1.0 2.0 0.00 0.00 0.00 56 1018.9
20260508132035 62 28 0.0 2.0 0.00 0.00 0.00 55 1018.9
20260508131531 61 269 0.0 1.0 0.00 0.00 0.00 62 1018.8
20260508131028 62 305 0.0 2.0 0.00 0.00 0.00 62 1018.8
20260508130525 60 315 0.0 2.0 0.00 0.00 0.00 68 1018.7
20260508130021 60 218 0.0 1.0 0.00 0.00 0.00 70 1018.9
20260508125517 58 304 0.0 2.0 0.00 0.00 0.00 76 1018.8
20260508125015 57 330 1.0 2.0 0.00 0.00 0.00 74 1018.7
20260508124513 57 323 0.0 2.0 0.00 0.00 0.00 77 1018.8
20260508124009 56 240 0.0 2.0 0.00 0.00 0.00 82 1018.6
20260508123508 54 20 0.0 2.0 0.00 0.00 0.00 81 1018.9
20260508123004 52 350 4.0 4.0 0.00 0.00 0.00 86 1018.8
20260508122501 50 8 1.0 3.0 0.00 0.00 0.00 92 1018.6
20260508121958 50 3 3.0 3.0 0.00 0.00 0.00 99 1018.5
20260508121456 50 156 0.0 1.0 0.00 0.00 0.00 99 1018.5
20260508120954 49 351 1.0 2.0 0.00 0.00 0.00 99 1018.2
20260508120451 49 350 0.0 2.0 0.00 0.00 0.00 99 1018.3
20260508115949 48 357 1.0 2.0 0.00 0.00 0.00 99 1018.2
20260508115447 48 11 2.0 2.0 0.00 0.00 0.00 99 1018.1
20260508114943 48 95 0.0 1.0 0.00 0.00 0.00 99 1018.0
20260508114440 47 99 1.0 2.0 0.00 0.00 0.00 99 1017.9
20260508113937 47 23 1.0 3.0 0.00 0.00 0.00 99 1017.8
20260508113434 47 0 1.0 2.0 0.00 0.00 0.00 99 1017.9
20260508112931 46 47 1.0 2.0 0.00 0.00 0.00 99 1017.9
20260508112428 46 83 0.0 1.0 0.00 0.00 0.00 99 1017.7
20260508111925 45 219 0.0 2.0 0.00 0.00 0.00 99 1017.8
20260508111422 45 139 0.0 1.0 0.00 0.00 0.00 99 1017.6
20260508110919 45 25 0.0 2.0 0.00 0.00 0.00 99 1017.7
20260508110416 45 328 0.0 2.0 0.00 0.00 0.00 99 1017.2
20260508105910 44 130 0.0 2.0 0.00 0.00 0.00 99 1017.6
20260508105407 44 6 0.0 1.0 0.00 0.00 0.00 99 1017.1
20260508104904 44 64 1.0 2.0 0.00 0.00 0.00 99 1017.0
20260508104401 44 43 0.0 1.0 0.00 0.00 0.00 99 1017.0
20260508103858 44 116 1.0 2.0 0.00 0.00 0.00 99 1016.8
20260508103355 44 113 0.0 2.0 0.00 0.00 0.00 99 1016.9
20260508102852 44 138 1.0 2.0 0.00 0.00 0.00 99 1016.7
20260508102351 44 68 1.0 2.0 0.00 0.00 0.00 99 1017.1
20260508101848 44 74 0.0 1.0 0.00 0.00 0.00 99 1017.0
20260508101345 44 193 0.0 2.0 0.00 0.00 0.00 99 1017.0
20260508100842 44 63 0.0 1.0 0.00 0.00 0.00 99 1016.7
20260508100341 44 49 0.0 2.0 0.00 0.00 0.00 99 1016.6
20260508095836 44 324 0.0 2.0 0.00 0.00 0.00 99 1016.6
20260508095334 44 55 2.0 2.0 0.00 0.00 0.00 99 1016.6
20260508094831 44 11 0.0 2.0 0.00 0.00 0.00 99 1016.3
20260508094328 44 80 0.0 2.0 0.00 0.00 0.00 99 1016.3
20260508093825 44 1 1.0 2.0 0.00 0.00 0.00 99 1016.3
20260508093322 44 106 0.0 2.0 0.00 0.00 0.00 99 1016.3
20260508092820 44 30 0.0 2.0 0.00 0.00 0.00 99 1015.9
20260508092318 44 3 0.0 1.0 0.00 0.00 0.00 99 1016.2
20260508091816 44 120 2.0 2.0 0.00 0.00 0.00 99 1016.3
20260508091311 45 358 0.0 2.0 0.00 0.00 0.00 99 1015.9
20260508090809 45 63 0.0 2.0 0.00 0.00 0.00 99 1015.9
20260508090308 45 164 0.0 2.0 0.00 0.00 0.00 99 1016.1
20260508085803 45 355 2.0 2.0 0.00 0.00 0.00 99 1015.7
20260508085300 45 218 0.0 2.0 0.00 0.00 0.00 99 1015.6
20260508084756 46 31 2.0 2.0 0.00 0.00 0.00 99 1015.7
20260508084254 46 109 1.0 2.0 0.00 0.00 0.00 99 1015.8
20260508083751 46 352 2.0 2.0 0.00 0.00 0.00 99 1015.6
20260508083248 46 21 1.0 2.0 0.00 0.00 0.00 99 1015.6
20260508082748 46 8 0.0 2.0 0.00 0.00 0.00 99 1015.5
20260508082246 45 11 0.0 2.0 0.00 0.00 0.00 99 1015.5
20260508081743 46 44 0.0 2.0 0.00 0.00 0.00 99 1015.4
20260508081240 46 10 1.0 2.0 0.00 0.00 0.00 99 1015.4
20260508080737 46 3 1.0 1.0 0.00 0.00 0.00 99 1015.4
20260508080235 47 3 0.0 1.0 0.00 0.00 0.00 99 1015.4
20260508075731 47 103 0.0 2.0 0.00 0.00 0.00 99 1015.1
20260508075228 47 191 1.0 2.0 0.00 0.00 0.00 99 1015.3